This is the latest recevied weather packets stored in our database for station/object KE5JQA-1. If no packets are shown the sender has not sent any weather packets the latest 10 day(s).
| Time | Temp. | Humidity | Pressure | Rain* | Wind** | Luminosity | Snow |
|---|---|---|---|---|---|---|---|
| 1777201217 | 23.33° C | 35% | 1009.3 hPa | 0 mm | - | - | - |
| 1777200318 | 23.33° C | 35% | 1009.2 hPa | 0 mm | - | - | - |
| 1777200018 | 23.33° C | 35% | 1009.1 hPa | 0 mm | - | - | - |
| 1777199719 | 23.33° C | 35% | 1009.1 hPa | 0 mm | - | - | - |
| 1777198817 | 23.33° C | 35% | 1008.9 hPa | 0 mm | - | - | - |
| 1777197618 | 23.33° C | 35% | 1009.1 hPa | 0 mm | - | - | - |
| 1777196417 | 23.33° C | 35% | 1008.9 hPa | 0 mm | - | - | - |
| 1777195817 | 23.33° C | 35% | 1008.9 hPa | 0 mm | - | - | - |
| 1777194017 | 23.33° C | 35% | 1008.9 hPa | 0 mm | - | - | - |
| 1777192216 | 23.33° C | 35% | 1008.9 hPa | 0 mm | - | - | - |
| 1777190438 | 23.89° C | 34% | 1008.6 hPa | 0 mm | - | - | - |
| 1777189818 | 23.89° C | 34% | 1008.7 hPa | 0 mm | - | - | - |
| 1777189217 | 23.89° C | 35% | 1008.8 hPa | 0 mm | - | - | - |
| 1777185617 | 23.89° C | 35% | 1009.1 hPa | 0 mm | - | - | - |
| 1777185316 | 23.89° C | 35% | 1009.1 hPa | 0 mm | - | - | - |
| 1777184416 | 23.89° C | 35% | 1008.7 hPa | 0 mm | - | - | - |
| 1777182616 | 23.89° C | 41% | 1008.3 hPa | 0 mm | - | - | - |
| 1777182017 | 23.89° C | 43% | 1008.2 hPa | 0 mm | - | - | - |
| 1777181716 | 23.89° C | 43% | 1008.3 hPa | 0 mm | - | - | - |
| 1777179016 | 25° C | 50% | 1008.4 hPa | 0 mm | - | - | - |
| 1777175416 | 25.56° C | 53% | 1007.8 hPa | 0 mm | - | - | - |
| 1777175116 | 25.56° C | 53% | 1007.7 hPa | 0 mm | - | - | - |
| 1777174816 | 25.56° C | 53% | 1007.4 hPa | 0 mm | - | - | - |
| 1777174516 | 25.56° C | 53% | 1007.2 hPa | 0 mm | - | - | - |
| 1777171516 | 24.44° C | 55% | 1007.1 hPa | 0 mm | - | - | - |
* Rain latest hour (hover to see other rain measurements)
** Current wind speed in m/s (hover to see current wind gust speed)